�������l�o���
Date,Time,MP-1(��Sv/h),MP-2(��Sv/h),MP-3(��Sv/h),MP-4(��Sv/h),MP-5(��Sv/h),MP-6(��Sv/h),MP-7(��Sv/h),MP-8(��Sv/h),����,����(m/s),���J
2022/03/07,00:00,0.592,0.884,0.558,1.087,0.775,0.354,0.614,0.583,���k��,4.4,��
2022/03/07,00:10,0.595,0.886,0.558,1.090,0.773,0.354,0.615,0.581,��,4.5,��
2022/03/07,00:20,0.594,0.885,0.559,1.087,0.772,0.353,0.617,0.581,���k��,4.6,��
2022/03/07,00:30,0.594,0.884,0.558,1.087,0.773,0.354,0.616,0.580,���k��,5.3,��
2022/03/07,00:40,0.592,0.883,0.558,1.088,0.772,0.353,0.615,0.582,�k��,6.8,��
2022/03/07,00:50,0.595,0.884,0.558,1.089,0.772,0.354,0.615,0.582,���k��,7.4,��
2022/03/07,01:00,0.592,0.885,0.560,1.088,0.773,0.352,0.614,0.580,���k��,7.5,��
2022/03/07,01:10,0.594,0.885,0.558,1.089,0.772,0.354,0.615,0.581,���k��,9.0,��
2022/03/07,01:20,0.593,0.883,0.559,1.089,0.772,0.353,0.617,0.583,���k��,9.8,��
2022/03/07,01:30,0.593,0.884,0.558,1.089,0.772,0.354,0.615,0.582,���k��,11.3,��
2022/03/07,01:40,0.594,0.885,0.558,1.086,0.773,0.352,0.615,0.582,���k��,8.9,��
2022/03/07,01:50,0.593,0.887,0.559,1.087,0.772,0.354,0.616,0.582,���k��,9.1,��
2022/03/07,02:00,0.594,0.883,0.557,1.088,0.772,0.352,0.616,0.581,���k��,9.7,��
2022/03/07,02:10,0.594,0.881,0.559,1.090,0.772,0.353,0.614,0.581,��,9.4,��
2022/03/07,02:20,0.593,0.882,0.559,1.087,0.774,0.353,0.616,0.582,��,9.0,��
2022/03/07,02:30,0.594,0.885,0.558,1.090,0.774,0.354,0.616,0.582,��,9.3,��
2022/03/07,02:40,0.596,0.885,0.559,1.090,0.773,0.354,0.617,0.580,���k��,7.6,��
2022/03/07,02:50,0.595,0.885,0.558,1.089,0.771,0.353,0.616,0.582,��,9.4,��
2022/03/07,03:00,0.594,0.885,0.558,1.088,0.774,0.354,0.616,0.581,��,8.9,��
2022/03/07,03:10,0.593,0.883,0.559,1.088,0.772,0.354,0.617,0.582,��,10.8,��
2022/03/07,03:20,0.594,0.884,0.558,1.088,0.774,0.353,0.616,0.581,��,6.7,��
2022/03/07,03:30,0.594,0.884,0.558,1.088,0.773,0.353,0.616,0.581,���k��,5.3,��
2022/03/07,03:40,0.593,0.883,0.559,1.088,0.773,0.353,0.617,0.581,���k��,6.1,��
2022/03/07,03:50,0.593,0.885,0.559,1.088,0.772,0.354,0.616,0.580,���k��,7.1,��
2022/03/07,04:00,0.593,0.886,0.560,1.090,0.771,0.354,0.616,0.582,�k��,4.6,��
2022/03/07,04:10,0.593,0.882,0.558,1.089,0.771,0.352,0.615,0.582,���k��,3.9,��
2022/03/07,04:20,0.593,0.883,0.557,1.090,0.773,0.353,0.616,0.581,���k��,2.5,��
2022/03/07,04:30,0.592,0.885,0.559,1.089,0.773,0.353,0.615,0.582,�k��,5.7,��
2022/03/07,04:40,0.593,0.883,0.558,1.087,0.773,0.352,0.615,0.581,�k��,9.4,��
2022/03/07,04:50,0.593,0.883,0.559,1.090,0.771,0.353,0.618,0.581,�k��,9.4,��
2022/03/07,05:00,0.593,0.883,0.557,1.090,0.770,0.352,0.615,0.582,�k��,11.3,��
2022/03/07,05:10,0.593,0.884,0.559,1.087,0.770,0.352,0.616,0.580,�k��,9.4,��
2022/03/07,05:20,0.593,0.884,0.559,1.090,0.773,0.355,0.616,0.579,�k��,9.8,��
2022/03/07,05:30,0.593,0.883,0.558,1.089,0.771,0.351,0.615,0.581,�k�k��,10.6,��
2022/03/07,05:40,0.592,0.882,0.560,1.088,0.771,0.353,0.616,0.579,�k�k��,10.2,��
2022/03/07,05:50,0.593,0.883,0.557,1.089,0.771,0.351,0.616,0.582,�k�k��,7.0,��
2022/03/07,06:00,0.594,0.882,0.556,1.089,0.773,0.352,0.615,0.580,�k��,6.4,��
2022/03/07,06:10,0.595,0.882,0.560,1.087,0.772,0.350,0.615,0.581,�k�k��,6.8,��
2022/03/07,06:20,0.593,0.884,0.557,1.087,0.772,0.351,0.616,0.582,�k�k��,7.9,��
2022/03/07,06:30,0.592,0.882,0.557,1.089,0.772,0.351,0.617,0.580,�k��,7.1,��
2022/03/07,06:40,0.593,0.884,0.559,1.086,0.770,0.352,0.615,0.581,�k��,9.1,��
2022/03/07,06:50,0.594,0.882,0.559,1.090,0.772,0.352,0.616,0.580,�k��,9.7,��
2022/03/07,07:00,0.594,0.883,0.558,1.089,0.771,0.354,0.616,0.580,�k��,8.9,��
2022/03/07,07:10,0.593,0.884,0.559,1.090,0.774,0.353,0.616,0.579,�k��,10.2,��
2022/03/07,07:20,0.594,0.883,0.558,1.088,0.771,0.352,0.616,0.580,�k��,9.2,��
2022/03/07,07:30,0.592,0.884,0.556,1.087,0.770,0.353,0.617,0.580,�k��,8.4,��
2022/03/07,07:40,0.594,0.881,0.556,1.086,0.771,0.355,0.616,0.580,�k�k��,10.5,��
2022/03/07,07:50,0.594,0.883,0.559,1.088,0.774,0.353,0.615,0.579,�k�k��,10.2,��
2022/03/07,08:00,0.594,0.881,0.559,1.089,0.771,0.352,0.616,0.581,�k��,9.9,��
2022/03/07,08:10,0.596,0.882,0.559,1.087,0.769,0.353,0.616,0.579,�k��,11.9,��
2022/03/07,08:20,0.594,0.881,0.558,1.088,0.770,0.352,0.616,0.581,�k�k��,8.1,��
2022/03/07,08:30,0.593,0.881,0.559,1.089,0.769,0.352,0.617,0.579,�k�k��,8.3,��
2022/03/07,08:40,0.594,0.881,0.558,1.088,0.771,0.352,0.617,0.580,�k�k��,11.4,��
2022/03/07,08:50,0.594,0.882,0.557,1.089,0.773,0.352,0.616,0.582,�k��,11.4,��
2022/03/07,09:00,0.594,0.881,0.559,1.089,0.772,0.353,0.614,0.580,�k��,13.1,��
2022/03/07,09:10,0.593,0.881,0.559,1.088,0.771,0.351,0.613,0.581,�k��,12.7,��
2022/03/07,09:20,0.593,0.882,0.557,1.086,0.772,0.353,0.615,0.580,�k��,13.6,��
2022/03/07,09:30,0.593,0.880,0.560,1.088,0.772,0.355,0.615,0.581,�k��,10.8,��
2022/03/07,09:40,0.595,0.877,0.558,1.090,0.774,0.353,0.615,0.581,�k��,13.6,��
2022/03/07,09:50,0.596,0.880,0.559,1.088,0.772,0.354,0.614,0.581,�k��,11.3,��
2022/03/07,10:00,0.593,0.878,0.559,1.090,0.773,0.352,0.616,0.581,�k��,9.1,��
2022/03/07,10:10,0.594,0.881,0.558,1.089,0.774,0.353,0.617,0.580,�k��,12.1,��
2022/03/07,10:20,0.594,0.883,0.559,1.089,0.773,0.355,0.614,0.581,�k��,11.3,��
2022/03/07,10:30,0.594,0.880,0.559,1.091,0.770,0.354,0.616,0.579,���k��,11.6,��
2022/03/07,10:40,0.594,0.880,0.560,1.091,0.772,0.353,0.615,0.580,���k��,11.3,��
2022/03/07,10:50,0.597,0.878,0.560,1.088,0.771,0.353,0.614,0.580,���k��,9.2,��
2022/03/07,11:00,0.596,0.883,0.558,1.090,0.773,0.354,0.615,0.581,���k��,13.2,��
2022/03/07,11:10,0.595,0.881,0.558,1.089,0.774,0.352,0.614,0.580,���k��,10.0,��
2022/03/07,11:20,0.596,0.883,0.560,1.090,0.772,0.353,0.616,0.582,���k��,11.4,��
2022/03/07,11:30,0.594,0.881,0.561,1.089,0.773,0.354,0.614,0.580,�k��,8.9,��
2022/03/07,11:40,0.595,0.880,0.559,1.091,0.772,0.353,0.614,0.579,�k��,8.4,��
2022/03/07,11:50,0.594,0.882,0.560,1.092,0.773,0.353,0.615,0.580,�k��,9.6,��
2022/03/07,12:00,0.595,0.880,0.560,1.091,0.773,0.354,0.613,0.580,�k��,9.5,��
2022/03/07,12:10,0.595,0.885,0.560,1.091,0.772,0.354,0.613,0.581,�k��,9.0,��
2022/03/07,12:20,0.595,0.884,0.559,1.093,0.773,0.353,0.615,0.581,�k��,9.4,��
2022/03/07,12:30,0.594,0.883,0.559,1.090,0.773,0.355,0.612,0.583,�k��,11.0,��
2022/03/07,12:40,0.593,0.884,0.559,1.091,0.774,0.353,0.615,0.582,�k��,10.7,��
2022/03/07,12:50,0.593,0.884,0.559,1.093,0.770,0.354,0.614,0.581,�k�k��,9.7,��
2022/03/07,13:00,0.595,0.882,0.561,1.091,0.771,0.355,0.614,0.581,�k��,5.8,��
2022/03/07,13:10,0.593,0.881,0.559,1.091,0.772,0.354,0.614,0.582,�k�k��,7.8,��
2022/03/07,13:20,0.597,0.881,0.560,1.089,0.772,0.353,0.615,0.581,�k��,8.2,��
2022/03/07,13:30,0.593,0.883,0.556,1.093,0.771,0.354,0.615,0.579,�k�k��,10.0,��
2022/03/07,13:40,0.595,0.880,0.560,1.091,0.772,0.354,0.616,0.580,�k��,7.7,��
2022/03/07,13:50,0.593,0.882,0.559,1.092,0.771,0.354,0.614,0.580,�k�k��,7.9,��
2022/03/07,14:00,0.596,0.880,0.559,1.092,0.772,0.353,0.616,0.580,�k��,9.2,��
2022/03/07,14:10,0.595,0.879,0.560,1.092,0.773,0.353,0.613,0.580,�k��,7.7,��
2022/03/07,14:20,0.595,0.882,0.559,1.090,0.775,0.353,0.614,0.579,�k��,7.1,��
2022/03/07,14:30,0.595,0.881,0.559,1.093,0.773,0.354,0.616,0.579,�k��,7.9,��
2022/03/07,14:40,0.595,0.886,0.561,1.090,0.773,0.354,0.615,0.580,�k��,5.9,��
2022/03/07,14:50,0.596,0.886,0.559,1.092,0.773,0.353,0.615,0.578,�k��,6.8,��
2022/03/07,15:00,0.595,0.883,0.560,1.092,0.772,0.353,0.612,0.579,�k��,8.1,��
2022/03/07,15:10,0.594,0.882,0.560,1.090,0.773,0.354,0.613,0.579,�k��,5.8,��
2022/03/07,15:20,0.595,0.883,0.560,1.093,0.773,0.354,0.613,0.580,�k��,4.3,��
2022/03/07,15:30,0.595,0.885,0.559,1.091,0.772,0.353,0.613,0.580,��,4.5,��
2022/03/07,15:40,0.595,0.886,0.560,1.091,0.774,0.354,0.614,0.580,��,6.3,��
2022/03/07,15:50,0.595,0.885,0.561,1.093,0.776,0.353,0.614,0.580,���쐼,6.0,��
2022/03/07,16:00,0.594,0.887,0.558,1.092,0.776,0.353,0.614,0.582,���쐼,6.5,��
2022/03/07,16:10,0.598,0.886,0.561,1.092,0.775,0.353,0.615,0.581,��,5.2,��
2022/03/07,16:20,0.596,0.883,0.561,1.094,0.773,0.354,0.614,0.581,���쐼,3.5,��
2022/03/07,16:30,0.596,0.885,0.560,1.091,0.774,0.353,0.615,0.582,��,4.9,��
2022/03/07,16:40,0.597,0.888,0.561,1.093,0.777,0.354,0.616,0.581,��,4.5,��
2022/03/07,16:50,0.596,0.886,0.559,1.093,0.773,0.352,0.615,0.582,���쐼,4.5,��
2022/03/07,17:00,0.596,0.887,0.560,1.093,0.774,0.353,0.617,0.581,���쐼,4.7,��
2022/03/07,17:10,0.596,0.887,0.561,1.093,0.774,0.355,0.615,0.582,��,5.1,��
2022/03/07,17:20,0.596,0.888,0.560,1.092,0.776,0.352,0.613,0.582,���쐼,5.4,��
2022/03/07,17:30,0.596,0.885,0.558,1.093,0.774,0.353,0.615,0.580,��,4.0,��
2022/03/07,17:40,0.596,0.887,0.559,1.093,0.773,0.353,0.615,0.581,��,5.8,��
2022/03/07,17:50,0.594,0.886,0.560,1.092,0.775,0.353,0.615,0.581,��,6.6,��
2022/03/07,18:00,0.596,0.884,0.558,1.092,0.776,0.353,0.614,0.580,��,5.5,��
2022/03/07,18:10,0.596,0.885,0.556,1.093,0.773,0.352,0.615,0.581,���쐼,5.9,��
2022/03/07,18:20,0.592,0.885,0.560,1.091,0.773,0.353,0.615,0.581,��,6.0,��
2022/03/07,18:30,0.593,0.886,0.559,1.092,0.775,0.354,0.616,0.580,���k��,5.3,��
2022/03/07,18:40,0.593,0.885,0.560,1.092,0.776,0.352,0.616,0.583,�k��,6.4,��
2022/03/07,18:50,0.596,0.885,0.560,1.092,0.773,0.352,0.615,0.581,���k��,4.8,��
2022/03/07,19:00,0.594,0.886,0.560,1.090,0.773,0.353,0.616,0.580,���k��,4.6,��
2022/03/07,19:10,0.594,0.887,0.559,1.093,0.775,0.352,0.616,0.580,���k��,3.7,��
2022/03/07,19:20,0.594,0.886,0.559,1.091,0.775,0.355,0.615,0.582,���k��,5.6,��
2022/03/07,19:30,0.594,0.886,0.558,1.091,0.773,0.353,0.616,0.581,�k��,4.6,��
2022/03/07,19:40,0.594,0.883,0.559,1.089,0.774,0.352,0.615,0.580,�k��,4.2,��
2022/03/07,19:50,0.594,0.886,0.560,1.092,0.774,0.353,0.615,0.580,�k��,6.5,��
2022/03/07,20:00,0.594,0.886,0.557,1.091,0.775,0.353,0.615,0.580,�k��,5.9,��
2022/03/07,20:10,0.595,0.887,0.559,1.091,0.774,0.352,0.616,0.580,�k��,5.2,��
2022/03/07,20:20,0.593,0.886,0.557,1.090,0.774,0.353,0.615,0.580,�k��,5.3,��
2022/03/07,20:30,0.593,0.887,0.559,1.091,0.774,0.354,0.615,0.582,�k��,4.2,��
2022/03/07,20:40,0.592,0.884,0.558,1.091,0.776,0.352,0.615,0.579,�k�k��,4.1,��
2022/03/07,20:50,0.595,0.885,0.560,1.091,0.772,0.351,0.615,0.581,�k�k��,5.5,��
2022/03/07,21:00,0.593,0.885,0.558,1.091,0.774,0.352,0.615,0.580,�k�k��,6.2,��
2022/03/07,21:10,0.593,0.885,0.558,1.092,0.774,0.353,0.615,0.581,�k�k��,4.1,��
2022/03/07,21:20,0.594,0.884,0.559,1.091,0.775,0.351,0.614,0.580,�k,3.6,��
2022/03/07,21:30,0.593,0.886,0.559,1.089,0.773,0.352,0.613,0.579,�k,2.8,��
2022/03/07,21:40,0.593,0.884,0.557,1.091,0.773,0.352,0.614,0.579,�k,2.5,��
2022/03/07,21:50,0.593,0.887,0.558,1.090,0.774,0.353,0.616,0.579,�k,2.0,��
2022/03/07,22:00,0.595,0.884,0.560,1.090,0.773,0.352,0.613,0.579,�k,1.7,��
2022/03/07,22:10,0.593,0.885,0.559,1.092,0.775,0.352,0.615,0.581,�k,1.5,��
2022/03/07,22:20,0.594,0.885,0.558,1.090,0.773,0.352,0.613,0.579,�k�k��,1.7,��
2022/03/07,22:30,0.593,0.886,0.560,1.090,0.772,0.351,0.613,0.580,�k�k��,1.7,��
2022/03/07,22:40,0.591,0.884,0.557,1.089,0.773,0.351,0.614,0.580,�k��,0.6,��
2022/03/07,22:50,0.593,0.886,0.558,1.092,0.773,0.352,0.613,0.581,�k��,0.8,��
2022/03/07,23:00,0.592,0.885,0.559,1.091,0.772,0.350,0.614,0.581,-,CALM,��
2022/03/07,23:10,0.593,0.885,0.558,1.092,0.775,0.352,0.615,0.581,-,CALM,��
2022/03/07,23:20,0.594,0.884,0.558,1.090,0.773,0.352,0.612,0.580,�k,0.8,��
2022/03/07,23:30,0.593,0.884,0.559,1.090,0.772,0.351,0.614,0.580,�k�k��,0.8,��
2022/03/07,23:40,0.594,0.882,0.557,1.090,0.773,0.352,0.612,0.581,-,CALM,��
2022/03/07,23:50,0.594,0.884,0.558,1.088,0.775,0.352,0.614,0.579,���쓌,0.6,��
